Location: Munderkingen
(48.2395°N, 9.6433°E)
Time: 23:44:04
(UTC+01:00)

Tiangong 2 - Visible Passes

Search period start: 21 January 2018 00:00
Search period end: 31 January 2018 00:00
Orbit: 384 x 390 km, 42.8° (Epoch: 21 January)

Date Brightness Start Highest point End Pass type
(mag) Time Alt. Az. Time Alt. Az. Time Alt. Az.
21 Jan 4.1 05:20:02 13° SE 05:20:02 13° SE 05:20:57 10° ESE visible
21 Jan 2.8 06:52:33 10° SW 06:55:21 28° S 06:58:11 10° ESE visible
22 Jan 2.8 05:56:28 24° S 05:56:48 24° SSE 05:59:29 10° ESE visible
23 Jan 4.6 05:00:32 11° ESE 05:00:32 11° ESE 05:00:39 10° ESE visible
23 Jan 2.6 06:32:48 18° SW 06:34:33 30° S 06:37:25 10° ESE visible
24 Jan 3.1 05:36:49 25° SE 05:36:49 25° SE 05:38:47 10° ESE visible
24 Jan 2.8 07:09:36 10° WSW 07:12:19 26° S 07:15:02 10° SE visible
25 Jan 2.4 06:13:04 26° SSW 06:13:43 29° S 06:16:33 10° ESE visible
26 Jan 3.9 05:17:02 16° SE 05:17:02 16° SE 05:17:58 10° ESE visible
26 Jan 3.0 06:49:18 12° WSW 06:51:26 20° SSW 06:53:53 10° SSE visible
27 Jan 2.8 05:53:16 24° S 05:53:16 24° S 05:55:33 10° SE visible
28 Jan 3.3 06:29:31 14° SW 06:30:28 15° SSW 06:32:24 10° SSE visible
29 Jan 3.8 05:33:32 14° SSE 05:33:32 14° SSE 05:34:20 10° SSE visible
